Lapse_Rate
5.2 5.2 5.2 5.4 5.4 5.5 5.7 5.8 6.0 6.1 6.2 6.4 6.3 6.2 6.3 6.1 6.0 5.8 5.8 5.8 5.9 5.8 6.0 5.7 5.8 5.8 5.5 5.4 5.6 5.8 5.6 5.5 5.5 5.8 6.0 5.7 5.7 5.1 5.0 5.4 5.5 5.6 5.8 5.6 5.7 5.5 5.5
5.9 5.8 5.9 6.0 5.9 6.0 6.3 6.3 6.3 6.3 6.3 6.4 6.4 6.3 6.2 6.2 6.0 6.0 6.1 5.9 5.9 5.6 5.7 5.8 5.8 5.8 5.5 5.4 5.8 5.6 5.5 5.6 5.4 5.5 5.6 5.5 5.4 5.0 4.9 5.0 5.1 5.5 5.5 5.3 5.5 5.5 5.4
6.2 6.4 6.3 6.4 6.4 6.5 6.3 6.2 6.3 6.2 6.2 6.3 6.4 6.6 6.4 6.2 6.3 6.2 6.2 6.0 5.8 5.6 5.6 5.6 5.6 5.5 5.6 5.9 5.4 5.4 5.7 5.5 5.5 5.4 5.3 5.2 5.4 4.9 5.3 5.1 5.2 5.1 5.1 5.1 5.2 5.7 5.4
6.4 6.2 6.2 6.2 6.2 6.2 6.1 6.1 6.1 6.0 6.0 6.2 6.3 6.4 6.3 6.1 6.0 6.0 6.1 6.2 5.9 5.7 5.7 5.5 5.0 5.1 5.8 5.5 5.6 5.7 5.5 5.8 5.7 5.7 5.4 4.8 4.9 4.8 4.9 4.8 4.9 4.9 5.3 5.6 6.5 6.5 5.6
6.0 5.9 6.0 6.0 6.1 6.2 6.1 6.1 6.1 5.9 5.9 6.1 6.1 6.2 6.2 6.0 6.0 5.9 5.9 5.8 5.7 5.7 5.8 5.4 5.1 5.2 5.5 5.5 5.6 5.7 5.8 5.8 5.9 5.9 5.7 5.3 5.1 5.2 4.6 4.6 4.9 5.4 5.6 6.7 7.2 6.7 5.8
5.9 5.9 5.8 5.9 6.0 6.0 6.0 6.0 6.0 6.0 6.0 5.9 6.1 5.9 5.9 6.0 5.8 5.9 5.8 5.8 5.7 5.5 5.4 5.2 5.1 5.0 5.6 4.8 4.5 5.4 5.7 5.6 5.4 5.4 5.3 5.2 5.4 5.0 4.8 5.3 5.6 7.0 7.5 7.4 7.1 7.4 6.9
6.1 6.1 6.1 6.1 6.0 6.2 6.0 5.9 5.9 5.9 5.8 6.0 6.1 6.0 6.0 6.1 5.7 6.0 5.8 5.6 5.2 5.0 5.4 5.6 5.1 5.2 4.8 4.7 4.9 4.6 4.7 5.3 4.9 4.4 4.3 4.8 4.9 5.1 6.0 6.4 6.3 6.5 6.7 7.0 7.0 7.9 7.0
6.2 6.1 6.2 6.3 6.3 6.2 6.2 6.1 6.0 5.9 5.9 5.9 6.1 6.1 6.2 5.9 5.9 5.9 5.6 5.7 5.7 4.8 5.0 5.5 5.8 5.6 5.4 5.3 4.3 4.3 4.3 4.5 4.6 5.0 5.4 5.6 5.4 5.6 6.9 7.1 7.1 7.0 6.6 6.9 7.4 7.4 7.6
5.9 6.0 6.0 6.0 6.0 6.1 6.1 6.1 6.0 5.9 6.0 6.1 6.1 6.2 6.1 5.9 5.8 5.8 6.0 5.8 5.5 5.4 4.7 5.6 5.5 5.5 5.5 4.5 5.3 4.9 5.8 4.9 5.0 6.0 5.9 7.3 7.1 7.1 7.1 7.3 7.7 7.4 7.5 7.5 7.8 7.8 7.9
6.1 6.0 6.1 6.1 6.0 6.0 6.0 6.1 5.9 6.0 6.0 6.1 6.3 6.4 6.2 6.0 5.9 6.2 6.1 6.2 5.9 5.3 5.4 5.3 4.8 4.9 5.0 5.6 4.8 6.2 6.1 6.1 5.9 6.1 7.0 7.4 7.7 8.0 8.0 7.6 7.9 8.2 7.8 7.7 7.6 7.7 7.8
6.1 6.2 6.1 6.1 6.3 6.3 6.4 6.4 6.3 6.3 6.3 6.4 6.5 6.6 6.5 6.9 6.2 6.2 6.6 6.5 5.5 5.7 6.9 6.1 5.5 5.0 5.6 5.8 6.7 6.8 6.0 6.5 6.7 7.3 7.5 7.4 7.7 7.7 7.8 7.6 7.7 7.6 7.9 7.7 7.7 7.7 7.9
6.2 6.1 6.1 6.1 6.3 6.3 6.4 6.5 6.4 6.4 6.3 6.4 6.6 6.8 6.9 6.9 7.0 7.0 7.0 5.8 6.4 6.4 6.8 7.0 5.5 6.2 6.5 6.7 6.6 6.7 6.5 6.8 7.3 7.4 7.8 7.7 7.9 7.4 7.7 7.8 7.8 7.7 7.7 7.4 7.5 7.7 8.3
6.4 6.4 6.3 6.3 6.3 6.6 6.7 6.8 6.7 6.6 6.7 6.7 6.8 7.0 7.2 7.2 7.3 7.2 6.7 6.4 6.5 6.7 7.0 7.4 6.9 6.7 6.7 7.2 6.9 7.2 7.0 7.2 7.3 7.5 7.4 7.8 7.3 7.5 7.3 7.1 7.1 7.4 7.5 8.1 8.6 8.4 8.1
6.5 6.5 6.5 6.5 6.6 6.8 6.8 7.0 6.9 7.0 7.1 7.1 7.1 7.2 7.0 7.0 7.4 7.0 6.4 6.3 6.7 7.1 7.7 7.7 7.5 7.4 7.4 7.6 7.4 7.4 7.4 7.5 7.3 7.8 7.8 7.0 7.0 7.4 7.1 7.3 7.6 7.3 7.7 8.1 7.8 8.5 8.7
6.4 6.6 6.6 6.6 6.7 6.9 7.0 7.2 7.1 7.2 7.3 7.3 7.3 7.2 7.3 7.2 7.0 6.9 6.5 6.8 6.6 7.3 8.0 7.9 7.2 7.8 7.9 7.6 7.5 7.5 7.4 7.6 7.9 7.6 7.3 7.2 7.5 7.0 6.8 7.0 7.3 8.2 8.4 8.4 8.2 8.0 8.6
5.9 6.2 6.5 6.6 6.7 7.0 7.2 7.3 7.2 7.3 7.4 7.6 7.5 7.4 6.6 6.6 6.8 6.7 6.8 6.6 6.7 7.2 7.1 7.2 7.6 7.9 8.1 8.2 7.5 7.7 7.8 7.6 7.7 7.4 7.4 7.2 7.2 7.0 7.0 7.1 7.4 7.9 7.5 7.9 8.4 8.3 8.9
5.8 5.6 6.2 6.6 6.7 6.9 7.1 7.3 7.2 7.3 7.4 7.5 6.7 6.5 6.6 6.7 6.9 7.0 6.7 6.5 6.3 6.5 6.5 7.2 7.7 8.0 7.9 8.2 7.9 7.8 8.1 7.4 7.3 6.7 7.0 7.3 7.5 7.4 7.0 7.4 7.9 7.7 7.8 7.8 7.9 8.1 8.4
5.9 5.8 5.7 6.6 6.7 6.7 7.1 7.2 7.4 7.3 7.1 7.1 7.1 6.9 6.9 6.6 6.7 6.8 6.4 6.3 6.3 6.4 6.4 6.6 7.0 7.6 7.6 7.5 7.6 7.7 7.9 6.7 6.7 6.6 6.7 6.4 6.7 7.1 7.6 7.6 7.6 7.6 7.7 7.8 7.9 8.1 8.4
5.9 5.9 5.9 6.6 6.6 6.4 6.7 7.1 7.0 7.4 6.9 6.9 7.1 6.7 6.9 6.6 6.7 6.5 6.1 6.1 6.1 6.2 6.4 6.6 6.8 6.6 6.6 6.5 7.0 6.8 6.6 6.5 7.1 7.0 6.6 6.5 6.5 7.3 7.7 7.4 7.3 7.2 7.2 7.2 7.5 7.8 7.8
5.8 6.2 6.2 6.5 6.7 6.7 6.6 6.7 6.4 6.8 6.9 6.9 6.9 7.2 6.4 6.3 6.2 5.8 5.7 5.7 6.2 5.9 6.2 6.2 6.3 6.4 6.3 6.4 6.2 6.0 6.0 6.7 7.0 6.6 7.0 6.9 7.1 7.6 8.6 8.6 7.5 7.2 7.8 8.0 7.8 7.2 7.5
6.1 6.1 6.0 6.3 6.8 7.1 7.1 6.9 7.1 6.9 6.9 7.4 7.3 6.8 6.7 6.4 5.8 5.7 5.7 5.6 5.6 5.5 5.7 5.8 5.8 5.9 6.3 6.3 6.0 5.8 6.1 6.5 6.6 6.8 7.0 6.8 7.0 7.5 7.5 7.9 7.6 7.6 7.7 7.4 7.3 7.0 7.0
6.2 6.3 6.4 6.8 7.5 7.6 7.7 7.5 7.1 7.2 7.2 7.2 6.9 6.8 6.7 6.2 5.6 5.6 5.4 5.2 5.6 5.6 5.5 5.5 5.8 6.1 6.2 6.3 6.4 6.4 6.8 6.6 6.8 6.4 6.4 6.3 6.5 6.6 7.3 7.4 7.4 7.2 7.0 7.1 7.1 7.1 7.1
6.5 6.4 6.4 6.8 7.4 7.7 7.7 7.6 7.4 7.3 7.2 7.1 6.9 6.6 6.4 6.0 5.6 5.4 5.6 5.8 5.7 5.3 5.2 5.8 6.0 6.2 6.3 6.1 6.2 6.7 7.0 7.0 6.8 6.5 6.4 6.4 6.5 6.4 6.8 6.9 6.6 6.7 6.7 6.9 7.1 7.2 7.1
6.7 6.6 7.0 7.1 7.4 7.6 7.8 7.7 7.5 7.2 6.9 6.7 6.4 6.4 6.1 6.0 5.8 5.8 5.8 5.9 5.8 5.7 5.6 5.7 5.8 5.9 5.8 6.4 6.7 6.6 6.6 6.2 6.2 6.3 6.3 6.4 6.2 6.4 6.5 6.1 6.7 6.8 5.8 6.1 6.2 6.5 6.5
6.7 7.1 7.4 7.4 7.4 7.5 7.6 7.6 7.2 7.2 6.6 6.6 6.4 6.2 6.3 6.0 6.0 5.8 5.8 6.0 5.9 5.5 5.6 5.5 5.8 6.0 6.4 6.5 6.4 6.5 6.3 6.1 6.0 5.9 5.8 5.8 6.1 6.2 6.3 6.9 6.9 6.2 6.2 6.0 6.0 6.3 6.5
7.0 7.3 7.3 7.5 7.5 7.5 7.3 7.1 6.8 6.6 6.5 6.5 6.5 6.4 6.1 6.2 6.0 5.9 6.1 5.9 5.8 5.5 5.6 6.0 6.2 6.3 6.5 6.1 6.5 6.9 7.0 7.0 5.9 5.7 5.3 5.5 5.6 6.1 6.5 6.9 7.6 6.7 6.8 6.6 6.8 6.3 6.5
7.1 7.4 7.5 7.5 7.3 7.4 6.9 6.8 6.6 6.2 6.2 6.1 6.1 6.1 6.0 6.1 5.9 6.0 6.1 6.0 5.9 5.7 5.9 6.5 6.4 6.5 6.6 6.3 6.0 6.7 6.8 6.5 6.5 6.2 5.8 6.1 6.6 6.9 7.1 7.3 7.3 6.8 6.8 6.6 6.2 6.2 6.0
7.4 7.5 7.3 7.1 7.0 6.8 6.7 6.7 6.5 6.0 5.9 5.9 5.8 5.9 6.0 6.0 6.0 6.0 6.0 6.1 6.2 6.4 6.5 6.8 6.6 6.4 6.0 5.8 6.2 6.2 6.3 6.4 6.4 6.4 6.8 7.0 7.1 7.1 6.9 7.1 7.3 6.4 6.3 6.1 5.9 6.0 5.9
7.3 7.1 6.8 6.5 6.1 6.2 6.6 6.6 6.2 6.1 6.1 6.0 5.7 5.7 5.8 6.4 6.5 6.4 6.6 6.8 6.9 6.7 6.7 6.8 6.3 6.2 5.7 6.1 6.3 6.0 6.0 6.4 6.9 7.0 6.8 6.7 6.8 6.9 6.8 6.4 6.4 6.2 5.9 5.9 5.9 5.7 5.5
Wind_Speed
10 9 9 7 9 11 12 14 13 14 15 16 17 20 22 19 19 19 18 16 12 9 6 6 9 12 11 8 17 13 12 10 11 11 12 11 12 11 17 13 13 21 21 20 21 17 19
11 11 7 9 12 12 13 14 14 15 16 15 17 19 21 20 21 20 18 17 13 9 4 5 8 10 10 16 4 2 8 10 14 11 14 14 14 13 15 20 19 17 16 18 19 19 18
11 10 11 11 13 12 12 13 15 15 16 17 16 17 19 22 21 19 18 17 13 8 2 4 7 8 10 19 6 6 6 12 12 13 15 15 16 17 9 13 16 19 24 22 23 23 25
13 12 14 13 16 11 11 12 12 15 18 18 19 17 18 20 21 19 19 18 14 8 2 4 7 7 8 9 14 16 16 15 12 11 14 13 10 15 18 14 19 15 19 21 18 18 13
15 15 15 16 17 14 13 13 14 16 19 18 20 20 20 20 20 18 19 18 12 6 2 5 5 6 11 3 11 15 19 17 15 12 11 4 10 16 14 16 16 16 19 23 20 12 11
17 18 18 17 16 17 16 16 17 19 21 22 22 22 20 20 19 19 22 15 7 4 4 4 7 5 9 12 6 5 6 14 12 13 12 14 10 15 15 15 18 19 20 21 19 17 15
17 18 19 20 20 18 18 19 20 21 24 26 24 22 20 20 16 28 20 7 3 4 7 12 10 12 5 4 4 9 6 9 13 13 18 18 16 22 22 23 25 24 25 26 21 15 13
19 19 19 19 18 19 20 21 22 23 26 27 24 22 20 21 23 32 14 7 10 6 10 19 22 25 22 21 17 16 13 12 17 21 20 21 22 24 24 24 23 24 24 26 22 20 18
18 19 20 20 21 21 23 24 25 27 28 28 27 23 22 19 30 16 15 11 4 1 5 15 24 24 23 22 30 31 23 23 24 24 25 26 25 24 17 25 25 25 25 23 23 19 15
20 21 20 22 23 22 23 24 27 30 31 29 27 24 21 19 14 7 7 9 7 8 2 13 11 9 17 22 25 24 29 31 27 29 26 23 25 25 20 20 22 23 21 22 20 18 16
22 22 21 21 22 21 22 25 28 31 32 31 28 23 21 38 10 9 10 14 9 3 6 7 4 5 3 16 8 5 12 26 30 27 21 23 19 22 22 25 20 21 19 16 18 17 20
22 22 21 23 22 22 21 25 31 32 31 32 28 17 29 11 6 11 27 15 2 3 10 8 5 8 12 16 18 11 7 19 19 26 25 27 13 15 18 17 22 20 15 16 18 16 16
21 21 21 23 23 22 21 25 32 32 32 32 24 19 30 12 7 28 19 6 5 8 4 12 10 11 15 14 14 15 10 16 18 14 22 22 19 19 13 12 11 15 15 13 11 12 15
22 22 21 22 23 21 21 25 32 30 32 26 18 34 23 8 26 27 9 3 11 16 23 3 11 13 16 13 15 15 15 16 20 19 11 10 9 19 13 18 14 14 15 9 7 12 11
24 22 22 21 21 19 19 24 30 30 28 19 30 6 5 6 29 15 7 5 11 23 11 21 13 14 16 16 10 12 16 17 18 16 9 7 11 8 6 5 4 9 18 13 11 18 11
25 24 23 21 20 17 15 21 28 31 19 33 6 5 2 15 21 11 5 10 16 14 10 14 20 15 14 19 15 16 15 10 17 10 16 6 5 13 9 5 7 8 7 6 6 10 17
24 26 23 22 22 18 12 16 28 22 36 27 5 5 1 11 6 4 7 9 9 14 12 12 16 15 12 12 16 17 9 1 8 8 6 4 7 7 4 10 11 7 9 6 6 7 6
24 25 24 23 22 20 6 8 4 29 27 6 3 4 3 9 5 2 5 5 10 18 11 8 8 13 12 11 9 14 8 4 5 10 6 1 4 6 12 5 3 8 11 13 9 13 13
25 25 24 23 23 23 14 9 6 12 5 3 2 3 4 5 7 7 5 6 12 15 15 10 7 7 4 7 6 6 4 1 4 9 12 12 7 7 10 8 8 9 13 13 12 12 16
24 25 22 23 24 26 23 18 15 7 6 2 4 5 1 1 0 5 7 10 11 13 14 12 8 9 11 8 5 10 10 4 3 4 5 1 11 11 9 6 6 6 14 13 14 10 15
25 25 21 21 26 24 25 26 22 13 6 1 3 5 8 11 11 8 12 11 14 9 8 11 8 12 12 9 11 7 9 7 6 4 3 3 9 11 13 15 7 10 9 13 16 17 16
25 25 22 19 25 23 25 25 23 17 7 1 3 4 5 11 18 9 9 10 15 11 12 14 12 17 15 9 12 11 12 11 8 10 8 3 4 5 11 10 12 15 16 17 19 19 21
26 25 19 14 27 26 24 24 24 20 8 3 4 7 10 15 15 12 11 15 18 16 8 13 12 9 10 4 5 8 3 4 2 8 9 7 5 4 9 4 8 11 16 19 21 19 17
22 23 25 18 23 24 22 22 24 21 13 3 3 3 4 10 13 15 18 20 21 17 10 8 8 8 9 8 7 5 4 3 4 5 8 7 7 5 4 2 9 2 8 9 9 8 9
12 17 25 23 23 21 18 16 26 15 16 6 3 2 3 7 13 15 18 16 14 9 12 11 8 9 10 8 5 5 4 5 8 10 9 8 8 6 7 9 9 8 4 3 4 8 2
12 23 23 21 19 17 16 19 24 13 11 5 3 3 4 7 9 16 16 18 14 13 11 7 8 6 5 3 3 7 6 6 5 7 5 9 11 8 5 8 6 5 4 6 2 10 3
19 21 20 18 17 17 18 16 15 12 13 5 2 2 2 7 5 12 11 13 8 10 6 10 8 5 5 4 5 5 4 3 7 7 7 6 8 11 10 6 2 4 7 2 5 4 8
21 21 19 17 15 18 16 18 19 18 13 7 0 4 2 4 9 8 6 8 5 6 8 12 6 3 6 6 4 4 2 4 2 3 3 6 6 6 6 5 6 11 2 4 5 4 5
21 18 17 15 10 17 18 20 17 15 11 13 2 3 5 4 9 14 13 11 10 7 9 10 2 10 3 4 3 3 3 2 2 5 6 2 2 3 4 4 5 6 7 5 5 5 6
Wind_Direction
297 294 293 302 311 311 305 304 303 302 299 294 273 259 252 238 236 229 219 211 207 229 255 304 320 324 307 261 268 115 139 174 206 223 235 231 238 238 255 271 275 271 265 271 280 268 266
289 287 294 311 308 301 303 302 298 296 291 289 291 282 258 246 238 227 212 201 198 211 244 301 311 312 268 266 293 198 224 191 236 229 247 248 250 256 281 268 271 272 289 279 275 267 261
307 310 310 310 300 294 307 306 303 297 294 288 285 285 281 259 241 230 203 190 183 191 233 302 302 295 261 245 287 261 233 243 243 250 257 254 258 246 240 260 263 261 271 275 263 258 256
293 294 295 299 296 288 304 307 311 305 300 296 289 278 277 277 250 227 194 170 170 167 198 295 285 281 258 259 258 248 249 242 246 255 253 273 259 258 251 259 276 256 258 268 264 250 263
291 288 288 293 292 282 280 283 290 291 293 293 288 280 267 269 256 217 172 151 155 152 218 268 258 247 276 105 237 241 236 237 231 234 232 256 246 240 243 243 258 239 257 262 272 210 243
285 283 288 287 285 285 279 287 294 294 292 289 286 282 268 255 255 182 144 134 137 153 215 206 256 250 233 253 254 244 235 222 224 211 212 218 229 239 225 244 250 257 248 244 244 258 219
281 286 288 291 286 283 288 294 296 295 291 288 287 284 276 250 234 143 122 120 149 205 212 217 214 245 257 219 212 216 172 209 222 220 222 207 226 235 238 235 249 272 278 281 275 288 263
274 283 286 290 291 289 292 295 294 290 290 287 284 283 274 250 175 167 181 196 209 341 277 222 253 265 251 278 265 245 191 213 204 235 230 238 233 248 256 258 255 261 258 263 271 266 268
275 279 284 285 289 292 294 296 292 289 288 286 281 276 261 243 177 172 200 206 64 120 264 275 250 247 248 229 255 254 240 226 239 238 244 241 243 248 254 253 253 245 256 262 269 273 258
271 276 278 279 284 287 289 287 288 286 288 284 276 268 238 189 162 165 206 134 137 94 331 274 232 259 235 238 259 259 240 244 235 245 247 252 266 255 256 265 254 255 250 256 264 264 261
268 270 275 275 277 277 283 284 287 287 286 281 275 266 229 170 140 184 154 149 122 71 258 258 218 82 152 185 318 273 221 228 232 233 234 246 238 247 254 258 259 260 258 267 262 261 263
262 266 271 273 272 271 270 281 286 286 282 280 276 248 176 186 185 155 144 130 107 166 231 217 180 197 204 216 246 263 268 224 235 244 249 247 238 265 269 263 251 252 249 258 256 251 253
260 263 269 273 269 265 274 277 281 284 282 278 256 196 167 157 179 148 137 132 152 223 123 219 217 204 217 226 224 237 232 203 216 223 241 246 245 229 261 266 278 261 250 248 231 227 240
262 263 268 271 265 265 276 283 285 289 281 264 212 168 181 169 151 146 149 124 218 228 227 138 203 202 228 227 230 223 231 228 220 238 254 247 244 236 212 237 225 228 224 249 266 250 280
264 263 265 271 267 259 278 283 286 290 277 207 155 138 137 168 158 158 156 204 216 235 260 214 210 242 232 231 245 211 237 235 227 202 215 215 224 241 242 302 274 246 221 249 277 260 260
266 266 267 271 268 253 279 290 293 284 233 143 122 124 58 167 172 164 205 225 227 237 225 206 222 207 238 218 207 235 226 240 227 227 217 254 230 214 170 231 227 261 356 272 230 266 261
266 265 270 272 264 245 278 306 294 257 153 143 119 121 268 164 169 204 214 205 218 218 204 213 238 248 240 255 218 229 232 180 155 173 244 228 262 153 196 214 233 222 251 256 311 257 268
261 259 262 267 257 228 240 346 46 140 128 78 141 155 199 164 175 178 220 202 236 188 207 199 265 258 240 250 220 244 246 353 198 182 198 229 239 230 244 91 314 265 261 252 240 253 257
258 257 256 256 251 224 197 149 155 108 86 127 100 105 347 181 191 190 200 203 216 175 191 187 216 240 268 205 203 198 189 35 196 195 171 172 223 240 213 202 215 230 231 243 251 267 255
256 254 252 262 242 217 198 177 188 174 121 103 147 128 163 185 317 205 187 196 177 200 203 209 191 186 182 184 188 201 206 161 205 219 360 166 255 252 264 25 337 210 234 228 230 240 253
255 250 246 264 219 215 202 189 182 169 146 150 206 175 188 182 201 219 186 180 175 162 183 194 195 211 201 199 187 201 187 217 215 166 191 236 256 258 269 286 244 274 240 233 237 231 252
259 243 236 250 223 209 200 190 178 168 162 196 177 162 186 179 183 178 180 184 177 173 174 194 217 207 207 211 200 188 175 191 187 183 199 191 250 310 270 269 264 259 255 255 253 254 266
252 228 231 261 211 207 196 201 189 169 162 220 212 241 165 162 171 177 188 182 189 175 188 205 206 176 193 124 46 33 148 203 249 190 195 191 219 230 263 286 283 269 251 252 258 259 267
230 225 230 210 206 202 200 181 178 176 190 270 177 185 179 166 173 184 183 180 178 182 150 140 152 175 84 104 108 107 113 144 194 207 179 224 199 249 263 233 247 53 50 334 316 303 279
229 226 181 175 179 175 169 180 179 180 208 262 131 240 190 170 179 180 176 179 159 119 139 120 71 81 146 161 170 155 174 193 213 222 207 234 237 234 239 247 252 181 71 25 356 293 339
191 188 170 173 157 158 169 187 174 171 214 258 293 335 271 135 170 181 172 146 146 131 124 120 107 131 168 170 210 219 199 213 160 157 226 220 233 222 219 257 260 62 62 354 341 261 28
195 161 155 156 157 168 158 165 168 181 222 229 324 258 265 119 53 179 156 168 156 154 129 143 147 148 206 178 191 218 190 222 171 183 169 181 203 223 226 244 122 18 334 12 223 40 342
150 149 146 147 159 173 181 168 177 201 193 211 55 240 283 92 59 69 90 124 146 156 161 144 137 196 180 200 188 193 233 162 144 65 159 184 200 196 231 239 230 3 189 318 18 50 16
134 143 144 143 158 153 169 183 165 191 188 202 188 190 226 72 100 85 70 46 26 10 113 174 83 164 135 233 151 102 172 166 188 161 180 236 0 18 9 45 69 42 58 38 35 75 74